• In Hungary
  • List of Countries
  • For 7 days
  • Water Temperature
  • Satellite Maps
  • Weather Map
  • News
  • Weather Widgets
  • user-avatar
    Login

    Hourly Weather Graz

    Today, 23 August, Wednesday

    Time Temperature Precipitation Wind Pressure Humidity
    00:00 +13°C° 0 mm 1 mps 726 mmHg 79%
    01:00 +13°C° 0 mm 1 mps 726 mmHg 80%
    02:00 +12°C° 0 mm 1 mps 726 mmHg 82%
    03:00 +12°C° 0 mm 1 mps 726 mmHg 83%
    04:00 +12°C° 0 mm 1 mps 726 mmHg 84%
    05:00 +13°C° 0 mm 1 mps 726 mmHg 80%
    06:00 +15°C° 0 mm 1 mps 726 mmHg 75%
    07:00 +15°C° 0 mm 0 mps 726 mmHg 71%
    08:00 +17°C° 0 mm 0 mps 727 mmHg 63%
    09:00 +22°C° 0 mm 1 mps 727 mmHg 56%
    10:00 +24°C° 0 mm 1 mps 727 mmHg 48%
    11:00 +25°C° 0 mm 1 mps 727 mmHg 47%
    12:00 +25°C° 0 mm 1 mps 727 mmHg 45%
    13:00 +26°C° 0 mm 1 mps 726 mmHg 44%
    14:00 +26°C° 0 mm 1 mps 726 mmHg 45%
    15:00 +26°C° 0 mm 1 mps 726 mmHg 46%
    16:00 +26°C° 0 mm 1 mps 726 mmHg 47%
    17:00 +24°C° 0 mm 1 mps 726 mmHg 54%
    18:00 +20°C° 0 mm 0 mps 725 mmHg 62%
    19:00 +18°C° 0 mm 0 mps 725 mmHg 69%
    20:00 +17°C° 0 mm 0 mps 726 mmHg 72%
    21:00 +18°C° 0 mm 1 mps 726 mmHg 75%
    22:00 +16°C° 0 mm 1 mps 726 mmHg 78%
    23:00 +16°C° 0 mm 1 mps 726 mmHg 80%

    Tomorrow, 24 August, Thursday

    Time Temperature Precipitation Wind Pressure Humidity
    00:00 +15°C° 0 mm 1 mps 726 mmHg 81%
    01:00 +15°C° 0 mm 1 mps 726 mmHg 83%
    02:00 +15°C° 0 mm 1 mps 726 mmHg 84%
    03:00 +15°C° 0 mm 1 mps 726 mmHg 85%
    04:00 +14°C° 0 mm 1 mps 726 mmHg 85%
    05:00 +16°C° 0 mm 1 mps 726 mmHg 81%
    06:00 +18°C° 0 mm 1 mps 726 mmHg 77%
    07:00 +17°C° 0 mm 0 mps 726 mmHg 72%
    08:00 +20°C° 0 mm 0 mps 727 mmHg 63%
    09:00 +25°C° 0 mm 1 mps 727 mmHg 55%
    10:00 +28°C° 0 mm 1 mps 727 mmHg 46%
    11:00 +29°C° 0 mm 1 mps 727 mmHg 43%
    12:00 +30°C° 0 mm 1 mps 727 mmHg 40%
    13:00 +31°C° 0 mm 1 mps 727 mmHg 37%
    14:00 +31°C° 0 mm 1 mps 727 mmHg 38%
    15:00 +31°C° 0 mm 1 mps 726 mmHg 39%
    16:00 +31°C° 0 mm 1 mps 726 mmHg 40%
    17:00 +28°C° 0 mm 1 mps 726 mmHg 49%
    18:00 +26°C° 0 mm 1 mps 726 mmHg 59%
    19:00 +23°C° 0 mm 1 mps 726 mmHg 68%
    20:00 +23°C° 0.1 mm 1 mps 726 mmHg 70%
    21:00 +22°C° 0.1 mm 1 mps 726 mmHg 71%
    22:00 +21°C° 0.1 mm 1 mps 726 mmHg 73%
    23:00 +21°C° 0 mm 1 mps 726 mmHg 75%

    Day after tomorrow, 25 August, Friday

    Time Temperature Precipitation Wind Pressure Humidity
    00:00 +20°C° 0 mm 1 mps 726 mmHg 77%
    01:00 +20°C° 0 mm 1 mps 726 mmHg 79%
    02:00 +19°C° 0 mm 1 mps 726 mmHg 81%
    03:00 +19°C° 0 mm 1 mps 726 mmHg 82%
    04:00 +19°C° 0 mm 1 mps 726 mmHg 84%
    05:00 +20°C° 0 mm 1 mps 726 mmHg 81%
    06:00 +21°C° 0 mm 1 mps 726 mmHg 78%
    07:00 +22°C° 0 mm 1 mps 727 mmHg 75%
    08:00 +25°C° 0 mm 1 mps 727 mmHg 65%
    09:00 +28°C° 0 mm 1 mps 727 mmHg 55%
    10:00 +28°C° 0 mm 0 mps 728 mmHg 46%
    11:00 +31°C° 0 mm 1 mps 727 mmHg 43%
    12:00 +32°C° 0 mm 1 mps 727 mmHg 40%
    13:00 +33°C° 0 mm 1 mps 727 mmHg 37%
    14:00 +33°C° 0 mm 1 mps 727 mmHg 38%
    15:00 +32°C° 0 mm 1 mps 726 mmHg 39%
    16:00 +32°C° 0 mm 1 mps 726 mmHg 40%
    17:00 +29°C° 0 mm 1 mps 726 mmHg 49%
    18:00 +27°C° 0 mm 1 mps 726 mmHg 57%
    19:00 +22°C° 0 mm 0 mps 726 mmHg 65%
    20:00 +23°C° 0.1 mm 1 mps 726 mmHg 68%
    21:00 +23°C° 0.1 mm 1 mps 726 mmHg 71%
    22:00 +22°C° 0.1 mm 1 mps 726 mmHg 74%
    23:00 +21°C° 0 mm 1 mps 726 mmHg 75%

    26 August, Saturday

    Time Temperature Precipitation Wind Pressure Humidity
    00:00 +21°C° 0 mm 1 mps 726 mmHg 76%
    01:00 +21°C° 0 mm 1 mps 726 mmHg 77%
    02:00 +20°C° 0 mm 1 mps 726 mmHg 78%
    03:00 +20°C° 0 mm 1 mps 726 mmHg 78%
    04:00 +20°C° 0 mm 1 mps 725 mmHg 79%
    05:00 +21°C° 0 mm 1 mps 726 mmHg 76%
    06:00 +22°C° 0 mm 1 mps 726 mmHg 73%
    07:00 +23°C° 0 mm 1 mps 726 mmHg 70%
    08:00 +26°C° 0 mm 1 mps 726 mmHg 61%
    09:00 +29°C° 0 mm 1 mps 727 mmHg 52%
    10:00 +32°C° 0 mm 1 mps 727 mmHg 43%
    11:00 +33°C° 0 mm 1 mps 727 mmHg 39%
    12:00 +33°C° 0 mm 1 mps 726 mmHg 36%
    13:00 +34°C° 0 mm 1 mps 726 mmHg 33%
    14:00 +34°C° 0 mm 1 mps 726 mmHg 34%
    15:00 +34°C° 0 mm 1 mps 726 mmHg 35%
    16:00 +33°C° 0 mm 1 mps 725 mmHg 36%
    17:00 +31°C° 0 mm 1 mps 725 mmHg 44%
    18:00 +28°C° 0 mm 1 mps 725 mmHg 52%
    19:00 +23°C° 0 mm 0 mps 725 mmHg 60%
    20:00 +25°C° 0.2 mm 1 mps 725 mmHg 63%
    21:00 +24°C° 0.2 mm 1 mps 725 mmHg 65%
    22:00 +23°C° 0.2 mm 1 mps 725 mmHg 68%
    23:00 +23°C° 0 mm 1 mps 725 mmHg 68%

    27 August, Sunday

    Time Temperature Precipitation Wind Pressure Humidity
    00:00 +22°C° 0 mm 1 mps 725 mmHg 69%
    01:00 +22°C° 0 mm 1 mps 725 mmHg 70%
    02:00 +22°C° 0 mm 1 mps 725 mmHg 71%
    03:00 +21°C° 0 mm 1 mps 724 mmHg 72%
    04:00 +21°C° 0 mm 1 mps 724 mmHg 72%
    05:00 +22°C° 0 mm 1 mps 724 mmHg 71%
    06:00 +23°C° 0 mm 1 mps 725 mmHg 69%
    07:00 +24°C° 0 mm 1 mps 725 mmHg 68%
    08:00 +27°C° 0 mm 1 mps 725 mmHg 59%
    09:00 +30°C° 0 mm 1 mps 725 mmHg 49%
    10:00 +33°C° 0 mm 1 mps 725 mmHg 40%
    11:00 +33°C° 0 mm 1 mps 725 mmHg 37%
    12:00 +34°C° 0 mm 1 mps 725 mmHg 34%
    13:00 +36°C° 0 mm 2 mps 725 mmHg 30%
    14:00 +36°C° 0 mm 2 mps 724 mmHg 31%
    15:00 +35°C° 0 mm 2 mps 724 mmHg 32%
    16:00 +35°C° 0 mm 2 mps 724 mmHg 33%
    17:00 +31°C° 0 mm 1 mps 723 mmHg 41%
    18:00 +29°C° 0 mm 1 mps 723 mmHg 49%
    19:00 +24°C° 0 mm 0 mps 723 mmHg 57%
    20:00 +25°C° 0.1 mm 1 mps 723 mmHg 59%
    21:00 +25°C° 0.1 mm 1 mps 723 mmHg 62%
    22:00 +24°C° 0.1 mm 1 mps 723 mmHg 64%
    23:00 +24°C° 0.1 mm 1 mps 723 mmHg 66%

    28 August, Monday

    Time Temperature Precipitation Wind Pressure Humidity
    00:00 +23°C° 0.1 mm 1 mps 723 mmHg 67%
    01:00 +23°C° 0.1 mm 1 mps 723 mmHg 69%
    02:00 +23°C° 0 mm 1 mps 723 mmHg 71%
    03:00 +22°C° 0 mm 1 mps 723 mmHg 74%
    04:00 +22°C° 0 mm 1 mps 723 mmHg 76%
    05:00 +22°C° 0.2 mm 1 mps 724 mmHg 76%
    06:00 +23°C° 0.2 mm 1 mps 724 mmHg 76%
    07:00 +24°C° 0.2 mm 1 mps 724 mmHg 76%
    08:00 +26°C° 0.2 mm 1 mps 725 mmHg 68%
    09:00 +28°C° 0.2 mm 1 mps 725 mmHg 59%
    10:00 +30°C° 0.2 mm 1 mps 725 mmHg 51%
    11:00 +31°C° 0 mm 1 mps 725 mmHg 46%
    12:00 +32°C° 0 mm 1 mps 725 mmHg 41%
    13:00 +34°C° 0 mm 1 mps 725 mmHg 36%
    14:00 +34°C° 0 mm 2 mps 725 mmHg 38%
    15:00 +32°C° 0 mm 2 mps 725 mmHg 40%
    16:00 +31°C° 0 mm 2 mps 725 mmHg 41%
    17:00 +29°C° 0.1 mm 2 mps 725 mmHg 49%
    18:00 +26°C° 0.1 mm 2 mps 725 mmHg 58%
    19:00 +24°C° 0.1 mm 1 mps 725 mmHg 66%
    20:00 +23°C° 0 mm 1 mps 725 mmHg 70%
    21:00 +22°C° 0 mm 1 mps 726 mmHg 75%
    22:00 +21°C° 0 mm 1 mps 726 mmHg 79%
    23:00 +20°C° 0 mm 1 mps 726 mmHg 81%
    Show more